Location: Caltech
(34.1382°N, 118.1253°W)
Time: 13:23:31
(UTC-07:00)

Iridium 21 - Visible Passes

Search period start: 23 September 2014 00:00
Search period end: 03 October 2014 00:00
Orbit: 776 x 779 km, 86.4° (Epoch: 23 September)

Date Brightness Start Highest point End Pass type
(mag) Time Alt. Az. Time Alt. Az. Time Alt. Az.
23 Sep 7.2 20:06:57 10° SSW 20:11:43 36° W 20:16:30 10° NNW visible
24 Sep 5.9 19:32:56 10° S 19:38:07 72° W 19:43:19 10° N visible
25 Sep 8.2 06:07:32 10° NNE 06:11:47 25° E 06:16:00 10° SE visible
25 Sep 5.6 18:59:33 10° SSE 19:04:38 59° E 19:09:45 10° N visible
25 Sep 8.8 20:43:31 10° WSW 20:45:43 13° WNW 20:47:55 10° NW visible
26 Sep 8.9 05:35:40 10° NE 05:37:59 13° ENE 05:40:17 10° ESE visible
26 Sep 7.9 20:07:43 10° SW 20:11:55 25° W 20:16:08 10° NNW visible
27 Sep 6.7 19:33:15 10° SSW 19:38:15 47° W 19:43:16 10° N visible
28 Sep 7.3 06:07:10 10° NNE 06:11:59 37° E 06:16:45 10° SSE visible
28 Sep 5.6 18:59:30 10° S 19:04:42 88° E 19:09:55 10° N visible
29 Sep 8.5 05:34:33 10° NNE 05:38:16 19° E 05:41:57 10° SE visible
29 Sep 8.6 20:08:55 10° WSW 20:12:10 17° WNW 20:15:26 10° NW visible
30 Sep 7.6 19:33:50 10° SW 19:38:25 32° W 19:43:02 10° NNW visible
01 Oct 6.4 06:07:01 10° N 06:12:08 56° E 06:17:13 10° SSE visible
01 Oct 6.2 18:59:40 10° SSW 19:04:48 62° W 19:09:57 10° N visible
02 Oct 7.7 05:34:01 10° NNE 05:38:30 29° E 05:42:57 10° SE visible
02 Oct 9.0 20:11:16 10° W 20:12:28 11° WNW 20:13:40 10° WNW visible
